This is the latest recevied weather packets stored in our database for station/object W0WC. If no packets are shown the sender has not sent any weather packets the latest 1 day(s).
| Time | Temp. | Humidity | Pressure | Rain* | Wind** | Luminosity | Snow |
|---|---|---|---|---|---|---|---|
| 1836274778 | 22.78° C | 71% | 1017.9 hPa | 0 mm | 0.45 m/s, 32° | 0 W/m² | - |
| 1836274476 | 22.78° C | 70% | 1017.6 hPa | 0 mm | 0 m/s | 0 W/m² | - |
| 1836274330 | 22.78° C | 71% | 1017.6 hPa | 0 mm | 0 m/s | 0 W/m² | - |
| 1836274174 | 22.78° C | 71% | 1017.8 hPa | 0 mm | 0 m/s | 0 W/m² | - |
| 1836273869 | 22.78° C | 70% | 1017.6 hPa | 0 mm | 0 m/s | 0 W/m² | - |
| 1778047631 | 8.33° C | 83% | 1014.7 hPa | 0 mm | 0.45 m/s, 18° | 0 W/m² | - |
| 1778047327 | 8.33° C | 82% | 1014.8 hPa | 0 mm | 0.45 m/s, 49° | 0 W/m² | - |
| 1778047024 | 8.33° C | 82% | 1014.8 hPa | 0 mm | 0.89 m/s, 30° | 0 W/m² | - |
| 1778046721 | 8.33° C | 83% | 1014.9 hPa | 0 mm | 0.45 m/s, 17° | 0 W/m² | - |
| 1778046418 | 8.33° C | 83% | 1014.7 hPa | 0 mm | 0.89 m/s, 29° | 0 W/m² | - |
| 1778046113 | 8.33° C | 83% | 1014.8 hPa | 0 mm | 1.34 m/s, 14° | 0 W/m² | - |
| 1778045811 | 8.33° C | 83% | 1015.2 hPa | 0 mm | 0.89 m/s, 16° | 0 W/m² | - |
| 1778045522 | 8.33° C | 82% | 1015.3 hPa | 0 mm | 1.79 m/s, 1° | 0 W/m² | - |
| 1778045208 | 8.33° C | 82% | 1015.2 hPa | 0 mm | 1.34 m/s, 6° | 0 W/m² | - |
| 1778044905 | 8.33° C | 81% | 1014.8 hPa | 0 mm | 0.89 m/s, 19° | 0 W/m² | - |
| 1778044603 | 8.33° C | 81% | 1014.7 hPa | 0 mm | 0.45 m/s, 16° | 0 W/m² | - |
| 1778044299 | 8.89° C | 81% | 1014.7 hPa | 0 mm | 2.68 m/s, 35° | 0 W/m² | - |
| 1778043997 | 8.89° C | 81% | 1014.6 hPa | 0 mm | 1.34 m/s, 8° | 0 W/m² | - |
| 1778043694 | 8.89° C | 80% | 1014.4 hPa | 0 mm | 0.45 m/s, 13° | 0 W/m² | - |
| 1778043390 | 8.89° C | 80% | 1014.6 hPa | 0 mm | 0.45 m/s, 356° | 0 W/m² | - |
| 1778043087 | 8.89° C | 80% | 1014.6 hPa | 0 mm | 1.79 m/s, 16° | 0 W/m² | - |
| 1778042785 | 8.89° C | 79% | 1014.6 hPa | 0 mm | 0.45 m/s, 23° | 0 W/m² | - |
| 1778042482 | 8.89° C | 80% | 1014.7 hPa | 0 mm | 1.79 m/s, 32° | 0 W/m² | - |
| 1778042179 | 8.89° C | 80% | 1014.4 hPa | 0 mm | 0.89 m/s, 92° | 0 W/m² | - |
| 1778041877 | 8.89° C | 79% | 1014.2 hPa | 0 mm | 1.79 m/s, 353° | 0 W/m² | - |
* Rain latest hour (hover to see other rain measurements)
** Current wind speed in m/s (hover to see current wind gust speed)